Flag for U.S.A. Weather past 2 weeks in Odessa, Texas, U.S.A.

Now
37 °F

Clear.


Feels Like: 32 °F
Forecast: 35 / 62 °F
Wind: 7 mph from Southwest

Location: Odessa-Schlemeyer Field

Current Time: Dec 24, 2014 at 10:22:36 PM

Latest Report: Dec 24, 2014 at 8:53 PM


Visibility: 10 mi

Pressure: 29.97 "Hg

Humidity: 60%

Dew point: 24 °F

Location of OdessaLocation

Historic Weather in Odessa — Graph

°F

Odessa temperature yesterday

Maximum temperature yesterday: 46 °F (at 2:53 PM)
Minimum temperature yesterday: 37 °F (at 10:53 AM)
Average temperature yesterday: 40 °F

Past Weeks' High & Low Weather Summary

 TemperatureHumidityPressure
High72 °F (Dec 13, 3:53 PM)97% (Dec 12, 2:53 AM)30.31 "Hg (Dec 12, 2:53 AM)
Low30 °F (Dec 24, 7:53 AM)14% (Dec 14, 4:53 PM)29.55 "Hg (Dec 22, 4:53 PM)
Average51 °F61%29.99 "Hg
* Reported Dec 9 8:53 PM — Dec 24 8:53 PM, Odessa, Weather by CustomWeather, © 2014

Note: Actual official high and low records may vary slightly from our data, if they occured in-between our weather recording intervals... More about our weather records

Advertising

Odessa weather history for previous 24 hours

 ConditionsComfort  
Time TempWeatherWind HumidityBarometerVisibility
8:53 PM
Dec 24
37 °FClear.7 mph60%29.97 "Hg10 mi
7:53 PM40 °FClear.9 mph51%29.98 "Hg10 mi
6:53 PM42 °FClear.9 mph45%30.00 "Hg10 mi
5:53 PM45 °FClear.9 mph37%30.01 "Hg10 mi
4:53 PM47 °FSunny.13 mph32%30.02 "Hg10 mi
3:53 PM47 °FSunny.15 mph30%30.03 "Hg10 mi
2:53 PM48 °FSunny.13 mph27%30.05 "Hg10 mi
1:53 PM47 °FSunny.9 mph26%30.09 "Hg10 mi
12:53 PM46 °FSunny.10 mph30%30.13 "Hg10 mi
11:53 AM43 °FSunny.12 mph37%30.17 "Hg10 mi
10:53 AM41 °FSunny.13 mph43%30.20 "Hg10 mi
9:53 AM38 °FSunny.10 mph48%30.22 "Hg10 mi
8:53 AM33 °FSunny.9 mph63%30.21 "Hg10 mi
7:53 AM30 °FSunny.9 mph72%30.19 "Hg10 mi
6:53 AM31 °FClear.12 mph69%30.17 "Hg10 mi
5:53 AM32 °FClear.13 mph66%30.16 "Hg10 mi
4:53 AM31 °FClear.10 mph76%30.15 "Hg10 mi
3:53 AM32 °FClear.10 mph73%30.15 "Hg10 mi
2:53 AM34 °FClear.10 mph64%30.14 "Hg10 mi
1:53 AM35 °FClear.13 mph64%30.13 "Hg10 mi
12:53 AM37 °FPassing clouds.15 mph60%30.13 "Hg10 mi
11:53 PM
Dec 23
38 °FOvercast.22 mph58%30.13 "Hg10 mi
10:53 PM39 °FPassing clouds.16 mph57%30.14 "Hg10 mi
Weather by CustomWeather, © 2014

See weather overviewHow to use our weather pages